[[{"header":{"parameterUnit":"m.s-1","parameterCategory":1,"la1":30.2991,"la2":30.254,"lo1":-89.0895,"lo2":-89.0444,"dy":0.0017,"dx":0.0017,"nx":28,"ny":28,"refTime":"2023-07-20T03:00:00:Z","depth":0,"parameterNumber":2,"parameterNumberName":"U-component_of_WINDS"},"data":[0,0,0,0,0,0,0,0,0,0,0,0,0,0,0,0,0,0,0,0,0,0,0,0,0,0,0,0,0,0,0,0,0,0,0,0,0,0,0,0,0,0,0,0,0,0,0,0,0,0,0,0,0,0,0,0,0,0,1.6293,1.6295,0,1.6451,1.6453,1.6455,1.651,1.6509,1.6509,1.6508,1.667,1.6674,1.6679,0,0,0,0,0,0,0,0,0,0,0,0,0,1.6037,1.6041,1.6293,1.6295,1.6297,1.6451,1.6453,1.6455,1.651,1.6509,1.6509,1.6508,1.6668,1.6674,1.668,0,0,0,0,0,0,0,0,0,0,0,0,0,1.6167,1.6043,1.6293,1.6343,1.6349,1.6451,1.6453,1.6456,1.651,1.6509,1.6509,1.6508,1.6666,1.6673,1.668,1.6744,0,0,1.6703,1.6706,0,0,0,0,0,0,0,0,1.6159,1.6176,1.6334,1.634,1.6347,1.646,1.6422,1.6552,1.6511,1.6449,1.6508,1.6507,1.6601,1.6613,1.6645,1.6751,1.6758,1.6703,1.6708,1.6711,1.6713,0,0,0,0,0,0,0,1.615,1.617,1.6356,1.6336,1.6344,1.6357,1.6375,1.6447,1.6528,1.6454,1.6459,1.6477,1.6604,1.6638,1.6649,1.676,1.6703,1.671,1.6714,1.6717,1.6926,1.6927,0,0,0,0,0,0,1.6133,1.6162,1.6351,1.636,1.6249,1.6362,1.6382,1.6425,1.6527,1.6542,1.6477,1.6479,1.6626,1.6641,1.6655,1.6735,1.6711,1.6718,1.6722,1.6925,1.6926,1.6927,0,0,0,0,0,0,1.6127,1.6149,1.6344,1.6262,1.6288,1.6368,1.6415,1.6428,1.6462,1.6545,1.6559,1.6497,1.6626,1.6645,1.6721,1.6741,1.6721,1.6728,1.6923,1.6925,1.6927,1.6896,0,0,0,0,0,0,1.612,1.6147,1.6172,1.6263,1.6292,1.6408,1.6416,1.6432,1.6474,1.6478,1.6567,1.6581,1.6626,1.671,1.6728,1.6751,1.6733,1.6922,1.6924,1.6926,1.6895,1.6896,1.6897,0,0,0,0,0,1.611,1.6157,1.6173,1.6195,1.6325,1.6409,1.6426,1.6477,1.6476,1.6501,1.6555,1.6578,1.6736,1.6717,1.6738,1.6764,1.6921,1.6923,1.6926,1.6895,1.6896,1.6897,0,0,0,0,0,0,1.6066,1.617,1.6189,1.6266,1.6328,1.6418,1.6452,1.6477,1.6541,1.6541,1.6602,1.6622,1.6693,1.6736,1.6713,1.683,1.683,1.6837,1.6799,1.6801,1.6802,1.679,1.6739,0,0,0,0,0,1.6066,1.6125,1.6212,1.6272,1.6302,1.6372,1.641,1.6444,1.6511,1.6538,1.6596,1.666,1.6724,1.6765,1.6829,1.6902,1.6922,1.693,1.6931,1.6931,1.6936,1.6978,1.6982,1.6936,1.6936,1.6936,0,0,1.6065,1.6129,1.6163,1.6265,1.6317,1.6377,1.6393,1.6456,1.6501,1.6547,1.6623,1.6668,1.6743,1.6818,1.6854,1.6856,1.6953,1.6934,1.6934,1.6939,1.6981,1.6985,1.6989,1.6938,1.6937,1.6937,0,0,1.6094,1.6148,1.6204,1.6256,1.6335,1.6381,1.6394,1.648,1.6512,1.6589,1.6625,1.6679,1.6788,1.684,1.688,1.6929,1.6952,1.6948,1.6952,1.6992,1.6995,1.6999,1.7015,1.7021,1.6953,1.6953,1.6952,0,1.6082,1.6174,1.6229,1.629,1.6334,1.6379,1.6435,1.6483,1.6578,1.6607,1.6608,1.6746,1.68,1.6887,1.6899,1.693,1.6947,1.6937,1.699,1.6994,1.6999,1.7015,1.7021,1.6951,1.6951,1.6952,1.6952,0,1.6156,1.622,1.6255,1.6346,1.6394,1.6452,1.6515,1.6557,1.6587,1.6632,1.671,1.6776,1.6853,1.6877,1.6907,1.6968,1.6967,1.6978,1.698,1.7001,1.7017,1.7024,1.695,1.695,1.695,1.6951,0,0,1.6161,1.6282,1.6294,1.6336,1.6427,1.6476,1.6536,1.6613,1.6647,1.6711,1.6762,1.6854,1.6865,1.6911,1.6947,1.6982,1.7015,1.699,1.6992,1.6991,1.7086,1.7076,1.7083,1.7032,1.7033,1.7034,1.708,0,1.6201,1.6311,1.6362,1.6449,1.6508,1.6551,1.6603,1.6664,1.6708,1.6764,1.6813,1.6876,1.6886,1.6914,1.6951,1.7003,1.7035,1.7001,1.708,1.7082,1.7059,1.7092,1.7082,1.7122,1.7087,1.7088,1.7089,0,1.6263,1.6327,1.642,1.6503,1.653,1.6576,1.665,1.6703,1.6772,1.6802,1.6853,1.6888,1.6952,1.6949,1.7038,1.7014,1.7049,1.708,1.7082,1.7091,1.7086,1.7101,1.7136,1.7141,1.7099,1.7099,1.7098,0,1.6256,1.6366,1.6436,1.6471,1.657,1.6601,1.6644,1.6713,1.6755,1.6819,1.6847,1.6918,1.6956,1.701,1.7063,1.7056,1.7146,1.7148,1.7172,1.7171,1.7189,1.7187,1.7229,1.7212,1.7212,1.7212,1.7212,0,1.6295,1.635,1.6434,1.6477,1.654,1.6598,1.6658,1.6703,1.6764,1.6816,1.6858,1.6906,1.6973,1.7029,1.7071,1.7138,1.7155,1.7181,1.7191,1.7177,1.7173,1.72,1.7199,1.7214,1.7214,1.7213,1.7213,0,1.6298,1.6357,1.6436,1.6523,1.6547,1.6589,1.6663,1.6706,1.6752,1.6817,1.6836,1.6908,1.6976,1.7035,1.7124,1.7152,1.7221,1.7234,1.7198,1.7203,1.7224,1.7221,1.7285,1.7296,1.7272,1.7272,1.7272,0,1.6319,1.6362,1.6454,1.6492,1.6535,1.6595,1.6639,1.6697,1.6741,1.6823,1.6856,1.6927,1.6987,1.7094,1.7154,1.7223,1.7237,1.7255,1.7248,1.7232,1.7237,1.7233,1.7238,1.7255,1.7255,1.7255,1.7255,0,1.6349,1.6376,1.6437,1.6509,1.656,1.6619,1.6679,1.6707,1.6777,1.6824,1.6894,1.694,1.7032,1.7102,1.7178,1.7221,1.7249,1.7257,1.7266,1.7251,1.7228,1.724,1.7198,1.7255,1.7255,1.7255,1.7255,1.7255,1.6361,1.6402,1.6473,1.654,1.6591,1.6646,1.6691,1.6742,1.6802,1.6882,1.6913,1.6984,1.7053,1.7157,1.72,1.7257,1.7261,1.7274,1.7278,1.728,1.7277,1.7219,1.7271,1.7271,1.7271,1.7271,1.7271,0,1.6393,1.6441,1.6502,1.6585,1.6637,1.666,1.6728,1.677,1.6832,1.6894,1.6952,1.7033,1.7101,1.7166,1.7238,1.727,1.7285,1.7287,1.7285,1.7294,1.727,1.7255,1.7274,1.7274,1.7274,1.7274,1.7274,1.7274,1.6416,1.6485,1.652,1.6615,1.6663,1.6734,1.6771,1.6821,1.6871,1.6959,1.7016,1.7058,1.7121,1.7198,1.7261,1.7278,1.7302,1.7301,1.7321,1.7297,1.7296,1.7295,1.7281,1.7306,1.7306,1.7341,1.7342,1.7342]},{"header":{"parameterUnit":"m.s-1","parameterCategory":1,"la1":30.2991,"la2":30.254,"lo1":-89.0895,"lo2":-89.0444,"dy":0.0017,"dx":0.0017,"nx":28,"ny":28,"refTime":"2023-07-20T03:00:00:Z","depth":0,"parameterNumber":3,"parameterNumberName":"V-component_of_WINDS"},"data":[0,0,0,0,0,0,0,0,0,0,0,0,0,0,0,0,0,0,0,0,0,0,0,0,0,0,0,0,0,0,0,0,0,0,0,0,0,0,0,0,0,0,0,0,0,0,0,0,0,0,0,0,0,0,0,0,0,0,5.5296,5.5296,0,5.5291,5.5291,5.5291,5.5229,5.5227,5.5226,5.5224,5.5218,5.522,5.5221,0,0,0,0,0,0,0,0,0,0,0,0,0,5.5253,5.5254,5.5296,5.5296,5.5296,5.5291,5.5291,5.5291,5.5229,5.5227,5.5225,5.5224,5.5218,5.5219,5.5221,0,0,0,0,0,0,0,0,0,0,0,0,0,5.5262,5.5254,5.5296,5.5265,5.5262,5.5291,5.5291,5.5291,5.5229,5.5227,5.5225,5.5223,5.5217,5.5219,5.5221,5.528,0,0,5.5227,5.5228,0,0,0,0,0,0,0,0,5.5262,5.5264,5.5269,5.5267,5.5264,5.5258,5.5273,5.5287,5.523,5.5242,5.5224,5.5221,5.5233,5.5234,5.5238,5.528,5.5279,5.5227,5.5229,5.5229,5.523,0,0,0,0,0,0,0,5.5261,5.5264,5.5294,5.527,5.5266,5.5251,5.5249,5.5276,5.5251,5.5241,5.5236,5.5236,5.5231,5.5236,5.5237,5.5279,5.5227,5.5229,5.523,5.5231,5.5369,5.5371,0,0,0,0,0,0,5.5265,5.5263,5.5294,5.5294,5.5257,5.5253,5.5252,5.5262,5.525,5.5246,5.5238,5.5233,5.5234,5.5235,5.5237,5.5305,5.5229,5.5231,5.5232,5.5366,5.5369,5.5372,0,0,0,0,0,0,5.5264,5.5268,5.5294,5.5277,5.528,5.5257,5.5269,5.5263,5.5268,5.5249,5.5244,5.5248,5.5232,5.5234,5.527,5.5304,5.5232,5.5234,5.5363,5.5367,5.5371,5.5441,0,0,0,0,0,0,5.5263,5.5268,5.529,5.5278,5.5281,5.5327,5.5271,5.5265,5.5272,5.5265,5.5256,5.5252,5.5231,5.5267,5.5272,5.5305,5.5235,5.536,5.5365,5.537,5.5435,5.5447,5.5456,0,0,0,0,0,5.5262,5.531,5.5292,5.5296,5.5308,5.5329,5.5331,5.5305,5.5275,5.5297,5.5284,5.5253,5.5299,5.5271,5.5276,5.531,5.5358,5.5364,5.5369,5.5431,5.5444,5.5456,0,0,0,0,0,0,5.5326,5.5308,5.5287,5.5333,5.5334,5.5319,5.5346,5.532,5.5329,5.5322,5.5289,5.5288,5.5329,5.5323,5.5292,5.5367,5.5323,5.533,5.5369,5.5381,5.5391,5.5392,5.5237,0,0,0,0,0,5.5346,5.5365,5.5348,5.539,5.5391,5.5369,5.5377,5.5357,5.5356,5.5356,5.5346,5.5346,5.536,5.5371,5.5383,5.5435,5.5432,5.5461,5.5471,5.548,5.5486,5.5512,5.5525,5.5391,5.539,5.539,0,0,5.5386,5.5379,5.5393,5.5403,5.5401,5.5421,5.5369,5.5393,5.5408,5.5359,5.5392,5.5385,5.5383,5.5427,5.5446,5.5423,5.5522,5.5487,5.5494,5.5495,5.552,5.5532,5.5544,5.5394,5.5394,5.5393,0,0,5.5471,5.5467,5.5502,5.5501,5.5498,5.5483,5.5492,5.5481,5.5475,5.5507,5.5471,5.5489,5.5514,5.5514,5.5518,5.5603,5.5574,5.5608,5.5662,5.5688,5.5699,5.5708,5.5738,5.575,5.5614,5.5614,5.5615,0,5.5521,5.5551,5.5523,5.5549,5.5555,5.5512,5.5547,5.5547,5.5549,5.5554,5.5529,5.5561,5.5556,5.56,5.5621,5.5625,5.5633,5.5608,5.57,5.5709,5.5717,5.5745,5.5757,5.5619,5.5618,5.5618,5.5617,0,5.5613,5.5634,5.5663,5.5666,5.5674,5.5705,5.5682,5.5694,5.5674,5.5661,5.5695,5.5688,5.5699,5.5708,5.5688,5.5748,5.5735,5.5706,5.5661,5.5734,5.576,5.5771,5.5624,5.5623,5.5622,5.5621,0,0,5.5737,5.5725,5.5735,5.5736,5.5731,5.5747,5.5776,5.5786,5.5797,5.58,5.5823,5.5846,5.5819,5.5823,5.5803,5.5827,5.5895,5.5795,5.5794,5.5813,5.5961,5.5983,5.5996,5.5876,5.5878,5.588,5.5961,0,5.5818,5.5866,5.5842,5.5894,5.5913,5.5873,5.5898,5.5898,5.5887,5.5902,5.589,5.5907,5.587,5.5872,5.5894,5.5882,5.5924,5.5876,5.5897,5.5898,5.5898,5.6009,5.6032,5.6109,5.5971,5.5973,5.5974,0,5.5918,5.5926,5.5979,5.5971,5.5978,5.6001,5.6008,5.6023,5.6022,5.6012,5.6017,5.5992,5.602,5.5977,5.6014,5.5982,5.599,5.5985,5.5988,5.5988,5.594,5.6012,5.6133,5.6144,5.599,5.5989,5.5987,0,5.6003,5.6026,5.6061,5.6063,5.6054,5.6071,5.6068,5.6065,5.6073,5.6079,5.6084,5.6094,5.61,5.6108,5.6086,5.6057,5.6127,5.6082,5.612,5.612,5.6136,5.6135,5.6259,5.6142,5.6142,5.6141,5.6141,0,5.6095,5.6129,5.6099,5.6121,5.6158,5.613,5.6168,5.616,5.6158,5.6177,5.6144,5.6162,5.6133,5.6149,5.6132,5.6165,5.6168,5.6161,5.6156,5.6164,5.6165,5.6168,5.6162,5.6144,5.6144,5.6143,5.6143,0,5.6195,5.6177,5.6212,5.6201,5.6199,5.6227,5.6217,5.6236,5.6224,5.6249,5.6253,5.6233,5.625,5.623,5.6245,5.6234,5.6279,5.6267,5.628,5.6276,5.6315,5.6311,5.6444,5.646,5.6334,5.6335,5.6336,0,5.6255,5.6281,5.6273,5.6283,5.6282,5.63,5.6308,5.6282,5.6292,5.6293,5.6312,5.6326,5.6336,5.6366,5.6353,5.6364,5.6351,5.6397,5.6353,5.636,5.6351,5.635,5.6352,5.6406,5.6408,5.6409,5.641,0,5.6364,5.6353,5.6366,5.6376,5.6387,5.6394,5.6398,5.6408,5.6381,5.6394,5.6411,5.6419,5.6435,5.645,5.6458,5.6454,5.6428,5.6424,5.6433,5.6441,5.6448,5.6444,5.6304,5.6421,5.642,5.6419,5.6418,5.6418,5.6445,5.6466,5.6464,5.6479,5.648,5.6484,5.6502,5.6492,5.6506,5.6517,5.6501,5.6523,5.6521,5.6529,5.6529,5.6546,5.6526,5.6539,5.6543,5.6546,5.6552,5.6446,5.6547,5.6547,5.6546,5.6546,5.6546,0,5.6551,5.6548,5.6563,5.657,5.6582,5.6557,5.656,5.6572,5.6591,5.6592,5.6603,5.6623,5.6638,5.6626,5.6638,5.6653,5.6642,5.6657,5.6656,5.6655,5.6569,5.656,5.6667,5.6667,5.6667,5.6667,5.6667,5.6667,5.6608,5.6642,5.6631,5.6665,5.6662,5.6683,5.6687,5.6691,5.6692,5.6716,5.6727,5.672,5.6716,5.6727,5.6739,5.6736,5.6741,5.6762,5.6754,5.6673,5.6661,5.665,5.6641,5.6763,5.6763,5.6838,5.6839,5.6839]}]]